GDANC EGBJ-EGPJ

Flight info

Callsign GDANC
Flight time 2h 24m
Altitude 2900
Route VIA MANCHESTER LLR KIRKBRIDE VRP MUSSELBURGH VRP KIRCALDY HARBOUR RCOCAS
Aircraft C172/L-S/S

Departure

Time 2026-04-24 16:47
Airport Gloucestershire Airport (EGBJ)

Arrival

Time 2026-04-24 19:11
Airport Fife Airport (EGPJ)
Time Latitude Longitude Altitude Speed Heading
2026-04-24 16:31 51.89248 -2.15856 94 ft 0 kts 74°
2026-04-24 16:38 51.89249 -2.15849 121 ft 1 kts 81°
2026-04-24 16:38 51.89250 -2.15838 95 ft 5 kts 85°
2026-04-24 16:38 51.89201 -2.15811 96 ft 9 kts 173°
2026-04-24 16:39 51.89151 -2.15793 97 ft 7 kts 173°
2026-04-24 16:39 51.89101 -2.15787 98 ft 6 kts 174°
2026-04-24 16:39 51.89086 -2.15818 100 ft 7 kts 267°
2026-04-24 16:39 51.89086 -2.15903 100 ft 10 kts 268°
2026-04-24 16:40 51.89082 -2.15998 101 ft 7 kts 269°
2026-04-24 16:40 51.89075 -2.16098 101 ft 11 kts 266°
2026-04-24 16:40 51.89062 -2.16231 97 ft 13 kts 258°
2026-04-24 16:40 51.89047 -2.16357 94 ft 11 kts 255°
2026-04-24 16:41 51.89029 -2.16469 95 ft 9 kts 258°
2026-04-24 16:41 51.88985 -2.16507 93 ft 8 kts 178°
2026-04-24 16:41 51.88931 -2.16501 94 ft 11 kts 190°
2026-04-24 16:41 51.88883 -2.16556 93 ft 7 kts 231°
2026-04-24 16:42 51.88860 -2.16650 91 ft 10 kts 261°
2026-04-24 16:42 51.88858 -2.16691 93 ft 0 kts 268°
2026-04-24 16:43 51.88858 -2.16693 93 ft 3 kts 267°
2026-04-24 16:43 51.88870 -2.16803 93 ft 13 kts 288°
2026-04-24 16:43 51.88907 -2.16932 94 ft 13 kts 304°
2026-04-24 16:43 51.88966 -2.17076 85 ft 17 kts 308°
2026-04-24 16:44 51.89055 -2.17191 84 ft 16 kts 336°
2026-04-24 16:44 51.89152 -2.17277 84 ft 16 kts 315°
2026-04-24 16:44 51.89222 -2.17393 86 ft 11 kts 313°
2026-04-24 16:44 51.89255 -2.17446 82 ft 0 kts 314°
2026-04-24 16:45 51.89279 -2.17483 83 ft 14 kts 317°
2026-04-24 16:45 51.89336 -2.17561 84 ft 6 kts 340°
2026-04-24 16:45 51.89357 -2.17498 82 ft 12 kts 86°
2026-04-24 16:46 51.89380 -2.17139 92 ft 51 kts 82°
2026-04-24 16:46 51.89422 -2.16419 152 ft 70 kts 89°
2026-04-24 16:46 51.89499 -2.15657 327 ft 75 kts 84°
2026-04-24 16:46 51.89614 -2.14845 610 ft 74 kts 81°
2026-04-24 16:47 51.89730 -2.14054 813 ft 72 kts 84°
2026-04-24 16:47 51.89857 -2.13245 992 ft 76 kts 55°
2026-04-24 16:47 51.90327 -2.12846 1196 ft 85 kts 17°
2026-04-24 16:47 51.90935 -2.12846 1428 ft 86 kts
2026-04-24 16:48 51.91548 -2.12936 1600 ft 84 kts
2026-04-24 16:48 51.92137 -2.12917 1836 ft 80 kts 12°
2026-04-24 16:48 51.92720 -2.12889 1957 ft 92 kts
2026-04-24 16:48 51.93337 -2.12856 2269 ft 79 kts 11°
2026-04-24 16:49 51.93914 -2.12829 2447 ft 83 kts 11°
2026-04-24 16:49 51.94525 -2.12805 2520 ft 90 kts 14°
2026-04-24 16:49 51.95087 -2.12798 2761 ft 79 kts 12°
2026-04-24 16:49 51.95660 -2.12764 2853 ft 85 kts
2026-04-24 16:50 51.96071 -2.12779 2908 ft 93 kts
2026-04-24 16:50 51.96969 -2.12829 2968 ft 106 kts
2026-04-24 16:50 51.97742 -2.12820 2927 ft 115 kts
2026-04-24 16:50 51.98554 -2.12830 2915 ft 117 kts
2026-04-24 16:51 51.99363 -2.12842 2908 ft 115 kts
2026-04-24 16:51 52.00175 -2.12856 2919 ft 119 kts
2026-04-24 16:51 52.01007 -2.12823 2913 ft 120 kts
2026-04-24 16:51 52.01836 -2.12795 2919 ft 119 kts
2026-04-24 16:52 52.02662 -2.12779 2907 ft 118 kts
2026-04-24 16:52 52.03473 -2.12769 2934 ft 116 kts
2026-04-24 16:52 52.04299 -2.12743 2927 ft 121 kts
2026-04-24 16:52 52.05127 -2.12723 2935 ft 122 kts
2026-04-24 16:53 52.05981 -2.12701 2934 ft 124 kts
2026-04-24 16:53 52.06839 -2.12671 2929 ft 122 kts
2026-04-24 16:53 52.07688 -2.12636 2924 ft 122 kts
2026-04-24 16:53 52.08534 -2.12623 2929 ft 122 kts
2026-04-24 16:54 52.09382 -2.12610 2920 ft 120 kts
2026-04-24 16:54 52.10230 -2.12571 2919 ft 122 kts
2026-04-24 16:54 52.11083 -2.12545 2918 ft 123 kts
2026-04-24 16:54 52.11939 -2.12560 2906 ft 122 kts
2026-04-24 16:55 52.12777 -2.12575 2900 ft 118 kts
2026-04-24 16:55 52.13593 -2.12604 2904 ft 117 kts
2026-04-24 16:55 52.14404 -2.12643 2904 ft 118 kts
2026-04-24 16:55 52.15230 -2.12675 2898 ft 119 kts
2026-04-24 16:56 52.16057 -2.12696 2913 ft 120 kts
2026-04-24 16:56 52.16899 -2.12707 2915 ft 122 kts
2026-04-24 16:56 52.17743 -2.12722 2902 ft 121 kts
2026-04-24 16:56 52.18579 -2.12730 2900 ft 119 kts
2026-04-24 16:57 52.19409 -2.12767 2902 ft 119 kts
2026-04-24 16:57 52.20231 -2.12797 2900 ft 117 kts
2026-04-24 16:57 52.21046 -2.12811 2895 ft 117 kts
2026-04-24 16:57 52.21855 -2.12821 2896 ft 116 kts
2026-04-24 16:58 52.22657 -2.12850 2909 ft 117 kts
2026-04-24 16:58 52.23463 -2.12882 2899 ft 117 kts
2026-04-24 16:58 52.24274 -2.12935 2897 ft 116 kts
2026-04-24 16:58 52.25077 -2.12973 2897 ft 116 kts
2026-04-24 16:59 52.25888 -2.13008 2900 ft 118 kts
2026-04-24 16:59 52.26696 -2.13038 2898 ft 116 kts
2026-04-24 16:59 52.28338 -2.13063 2903 ft 120 kts
2026-04-24 17:00 52.29174 -2.13092 2899 ft 120 kts
2026-04-24 17:00 52.30840 -2.13125 2899 ft 119 kts
2026-04-24 17:00 52.31663 -2.13133 2899 ft 118 kts
2026-04-24 17:01 52.33309 -2.13197 2908 ft 120 kts
2026-04-24 17:01 52.34143 -2.13228 2901 ft 119 kts
2026-04-24 17:02 52.35797 -2.13268 2905 ft 118 kts
2026-04-24 17:02 52.36614 -2.13270 2906 ft 118 kts
2026-04-24 17:02 52.37426 -2.13289 2906 ft 119 kts
2026-04-24 17:02 52.38263 -2.13288 2915 ft 123 kts
2026-04-24 17:03 52.39973 -2.13313 2906 ft 120 kts
2026-04-24 17:03 52.40800 -2.13330 2910 ft 116 kts
2026-04-24 17:03 52.41611 -2.13329 2915 ft 117 kts
2026-04-24 17:04 52.42432 -2.13348 2911 ft 118 kts
2026-04-24 17:04 52.44068 -2.13388 2906 ft 118 kts
2026-04-24 17:04 52.44883 -2.13396 2906 ft 117 kts
2026-04-24 17:05 52.45692 -2.13394 2903 ft 116 kts
2026-04-24 17:05 52.46513 -2.13390 2911 ft 120 kts
2026-04-24 17:05 52.48187 -2.13406 2914 ft 121 kts
2026-04-24 17:06 52.49031 -2.13423 2906 ft 121 kts
2026-04-24 17:06 52.50706 -2.13445 2908 ft 120 kts
2026-04-24 17:06 52.51533 -2.13434 2909 ft 118 kts
2026-04-24 17:07 52.52084 -2.13444 2909 ft 120 kts
2026-04-24 17:07 52.53192 -2.13451 2903 ft 120 kts
2026-04-24 17:07 52.54886 -2.13469 2911 ft 122 kts
2026-04-24 17:08 52.56550 -2.13476 2910 ft 118 kts
2026-04-24 17:08 52.57383 -2.13497 2913 ft 120 kts
2026-04-24 17:08 52.58224 -2.13521 2903 ft 120 kts
2026-04-24 17:09 52.59872 -2.13610 2895 ft 119 kts 351°
2026-04-24 17:09 52.61408 -2.14663 2910 ft 121 kts 341°
2026-04-24 17:10 52.62187 -2.15208 2908 ft 121 kts 341°
2026-04-24 17:10 52.64488 -2.16934 2917 ft 123 kts 339°
2026-04-24 17:11 52.66869 -2.18671 2909 ft 121 kts 340°
2026-04-24 17:12 52.70735 -2.21585 2912 ft 127 kts 339°
2026-04-24 18:54 55.76613 -2.89822 2802 ft 111 kts 338°
2026-04-24 18:55 55.78070 -2.90816 2762 ft 116 kts 338°
2026-04-24 18:55 55.78826 -2.91336 2693 ft 118 kts 338°
2026-04-24 18:55 55.79600 -2.91864 2612 ft 120 kts 338°
2026-04-24 18:56 55.80384 -2.92364 2533 ft 119 kts 340°
2026-04-24 18:56 55.81169 -2.92836 2457 ft 119 kts 340°
2026-04-24 18:56 55.81954 -2.93308 2379 ft 119 kts 340°
2026-04-24 18:56 55.82732 -2.93774 2302 ft 121 kts 339°
2026-04-24 18:57 55.83508 -2.94241 2298 ft 115 kts 339°
2026-04-24 18:57 55.84263 -2.94693 2293 ft 113 kts 340°
2026-04-24 18:57 55.85001 -2.95139 2293 ft 112 kts 340°
2026-04-24 18:57 55.85738 -2.95581 2293 ft 111 kts 340°
2026-04-24 18:58 55.86472 -2.96025 2293 ft 111 kts 340°
2026-04-24 18:58 55.87206 -2.96482 2292 ft 112 kts 339°
2026-04-24 18:58 55.87938 -2.96958 2293 ft 112 kts 338°
2026-04-24 18:58 55.88667 -2.97446 2289 ft 111 kts 338°
2026-04-24 18:59 55.89389 -2.97934 2293 ft 111 kts 338°
2026-04-24 18:59 55.90103 -2.98411 2289 ft 111 kts 338°
2026-04-24 18:59 55.90818 -2.98897 2294 ft 110 kts 338°
2026-04-24 18:59 55.91536 -2.99381 2291 ft 110 kts 337°
2026-04-24 19:00 55.92251 -2.99862 2294 ft 111 kts 337°
2026-04-24 19:00 55.92976 -3.00350 2297 ft 112 kts 338°
2026-04-24 19:00 55.93705 -3.00844 2292 ft 111 kts 338°
2026-04-24 19:00 55.94422 -3.01331 2293 ft 110 kts 337°
2026-04-24 19:01 55.95139 -3.01830 2291 ft 110 kts 335°
2026-04-24 19:01 55.95844 -3.02364 2292 ft 110 kts 336°
2026-04-24 19:01 55.96545 -3.02901 2292 ft 109 kts 335°
2026-04-24 19:01 55.97235 -3.03429 2293 ft 109 kts 335°
2026-04-24 19:02 55.97706 -3.03790 2292 ft 109 kts 335°
2026-04-24 19:02 55.98626 -3.04499 2292 ft 108 kts 335°
2026-04-24 19:02 55.99320 -3.05033 2291 ft 109 kts 335°
2026-04-24 19:02 56.00016 -3.05572 2291 ft 109 kts 335°
2026-04-24 19:03 56.00712 -3.06110 2291 ft 109 kts 335°
2026-04-24 19:03 56.01409 -3.06650 2290 ft 109 kts 335°
2026-04-24 19:03 56.02105 -3.07194 2290 ft 109 kts 335°
2026-04-24 19:03 56.02795 -3.07729 2291 ft 110 kts 335°
2026-04-24 19:04 56.03493 -3.08278 2292 ft 109 kts 335°
2026-04-24 19:04 56.04191 -3.08823 2292 ft 109 kts 335°
2026-04-24 19:04 56.04888 -3.09373 2292 ft 110 kts 335°
2026-04-24 19:04 56.05586 -3.09922 2292 ft 110 kts 335°
2026-04-24 19:05 56.06283 -3.10470 2292 ft 110 kts 335°
2026-04-24 19:05 56.06980 -3.11018 2291 ft 109 kts 335°
2026-04-24 19:05 56.07441 -3.11379 2291 ft 109 kts 334°
2026-04-24 19:05 56.08138 -3.11927 2291 ft 109 kts 334°
2026-04-24 19:06 56.09077 -3.12668 2254 ft 112 kts 334°
2026-04-24 19:06 56.09559 -3.13046 2193 ft 116 kts 335°
2026-04-24 19:06 56.10306 -3.13639 2096 ft 118 kts 335°
2026-04-24 19:06 56.11051 -3.14225 1993 ft 116 kts 334°
2026-04-24 19:07 56.11764 -3.14876 1875 ft 115 kts 314°
2026-04-24 19:07 56.12190 -3.16052 1768 ft 111 kts 302°
2026-04-24 19:07 56.12593 -3.17201 1663 ft 107 kts 301°
2026-04-24 19:07 56.12983 -3.18326 1556 ft 105 kts 301°
2026-04-24 19:08 56.13382 -3.19421 1450 ft 105 kts 306°
2026-04-24 19:08 56.13830 -3.20435 1401 ft 101 kts 309°
2026-04-24 19:08 56.14267 -3.21384 1391 ft 97 kts 309°
2026-04-24 19:08 56.14680 -3.22303 1401 ft 92 kts 306°
2026-04-24 19:09 56.15097 -3.23200 1328 ft 96 kts 317°
2026-04-24 19:09 56.15639 -3.23883 1271 ft 95 kts 327°
2026-04-24 19:09 56.16167 -3.24379 1236 ft 78 kts 335°
2026-04-24 19:09 56.16664 -3.24802 1078 ft 77 kts 328°
2026-04-24 19:10 56.17128 -3.25286 1050 ft 84 kts 348°
2026-04-24 19:10 56.17552 -3.24675 916 ft 80 kts 72°
2026-04-24 19:10 56.17744 -3.23856 731 ft 69 kts 64°
2026-04-24 19:10 56.17989 -3.23084 529 ft 72 kts 59°
2026-04-24 19:11 56.18224 -3.22369 395 ft 53 kts 60°
2026-04-24 19:11 56.18326 -3.22036 398 ft 19 kts 60°
2026-04-24 19:11 56.18379 -3.21867 394 ft 10 kts 60°
2026-04-24 19:11 56.18416 -3.21850 394 ft 3 kts 334°
2026-04-24 19:12 56.18432 -3.21843 396 ft 7 kts 53°
2026-04-24 19:12 56.18455 -3.21810 400 ft 2 kts 324°
2026-04-24 19:12 56.18457 -3.21812 400 ft 0 kts 326°